YC0TBU-3 Weather Reports


Display with metric or nautical units.
time (UTC)temp
F
wind
direction
speed
MPH
gust
MPH
rain 1hr
in
rain 24hr
in
rain mn
in
humidity
%
barometer
mb
20260508225901 75 0.0 0.0 0.00 0.00 0.00 57 1010.2
20260508224716 74 0.0 0.0 0.00 0.00 0.00 58 1012.3
20260508223531 74 0.0 0.0 0.00 0.00 0.00 58 1011.2
20260508222346 74 0.0 0.0 0.00 0.00 0.00 59 1012.6
20260508221201 74 0.0 0.0 0.00 0.00 0.00 59 1011.7
20260508220016 75 0.0 0.0 0.00 0.00 0.00 58 1010.3
20260508214837 75 0.0 0.0 0.00 0.00 0.00 58 1012.9
20260508213630 75 0.0 0.0 0.00 0.00 0.00 58 1010.0
20260508212445 75 0.0 0.0 0.00 0.00 0.00 59 1010.1
20260508211300 75 0.0 0.0 0.00 0.00 0.00 59 1011.3
20260508210115 75 0.0 0.0 0.00 0.00 0.00 58 1010.1
20260508204930 76 0.0 0.0 0.00 0.00 0.00 57 1011.3
20260508203745 75 0.0 0.0 0.00 0.00 0.00 58 1009.0
20260508202600 75 0.0 0.0 0.00 0.00 0.00 58 1012.1
20260508201415 76 0.0 0.0 0.00 0.00 0.00 57 1012.6
20260508200230 76 0.0 0.0 0.00 0.00 0.00 58 1011.0
20260508195045 76 0.0 0.0 0.00 0.00 0.00 57 1011.9
20260508193900 75 0.0 0.0 0.00 0.00 0.00 59 1013.2
20260508192715 76 0.0 0.0 0.00 0.00 0.00 58 1011.7
20260508191530 75 0.0 0.0 0.00 0.00 0.00 58 1012.3
20260508190345 76 0.0 0.0 0.00 0.00 0.00 58 1010.5
20260508185200 76 0.0 0.0 0.00 0.00 0.00 58 1013.5
20260508184015 76 0.0 0.0 0.00 0.00 0.00 58 1014.1
20260508182830 76 0.0 0.0 0.00 0.00 0.00 58 1013.1
20260508181645 76 0.0 0.0 0.00 0.00 0.00 57 1013.3
20260508180500 77 0.0 0.0 0.00 0.00 0.00 57 1013.7
20260508175315 77 0.0 0.0 0.00 0.00 0.00 57 1013.0
20260508174131 76 0.0 0.0 0.00 0.00 0.00 57 1012.5
20260508172945 77 0.0 0.0 0.00 0.00 0.00 57 1012.5
20260508171800 76 0.0 0.0 0.00 0.00 0.00 58 1012.3
20260508170615 76 0.0 0.0 0.00 0.00 0.00 58 1012.9
20260508165430 77 0.0 0.0 0.00 0.00 0.00 58 1013.6
20260508164245 77 0.0 0.0 0.00 0.00 0.00 57 1012.2
20260508163100 77 0.0 0.0 0.00 0.00 0.00 57 1012.8
20260508161915 77 0.0 0.0 0.00 0.00 0.00 57 1012.2
20260508160730 77 0.0 0.0 0.00 0.00 0.00 58 1012.3
20260508155545 77 0.0 0.0 0.00 0.00 0.00 58 1012.5
20260508154400 77 0.0 0.0 0.00 0.00 0.00 59 1012.9
20260508153220 78 0.0 0.0 0.00 0.00 0.00 58 1013.2
20260508152013 77 0.0 0.0 0.00 0.00 0.00 58 1014.3
20260508150828 78 0.0 0.0 0.00 0.00 0.00 58 1013.3
20260508145649 78 0.0 0.0 0.00 0.00 0.00 59 1010.6
20260508144442 78 0.0 0.0 0.00 0.00 0.00 58 1012.6
20260508143257 79 0.0 0.0 0.00 0.00 0.00 58 1012.6
20260508142112 79 0.0 0.0 0.00 0.00 0.00 56 1012.7
20260508140927 79 0.0 0.0 0.00 0.00 0.00 56 1011.1
20260508135742 79 0.0 0.0 0.00 0.00 0.00 56 1012.8
20260508134557 79 0.0 0.0 0.00 0.00 0.00 55 1013.1
20260508133356 79 0.0 0.0 0.00 0.00 0.00 56 1012.5
20260508132211 79 0.0 0.0 0.00 0.00 0.00 56 1013.2
20260508131026 79 0.0 0.0 0.00 0.00 0.00 56 1013.3
20260508125841 79 0.0 0.0 0.00 0.00 0.00 56 1012.3
20260508124656 79 0.0 0.0 0.00 0.00 0.00 56 1013.0
20260508123511 79 0.0 0.0 0.00 0.00 0.00 55 1012.1
20260508122326 79 0.0 0.0 0.00 0.00 0.00 56 1011.9
20260508121142 79 0.0 0.0 0.00 0.00 0.00 56 1011.2
20260508115956 79 0.0 0.0 0.00 0.00 0.00 56 1011.3
20260508114811 79 0.0 0.0 0.00 0.00 0.00 57 1013.9
20260508113626 79 0.0 0.0 0.00 0.00 0.00 56 1010.9
20260508112441 79 0.0 0.0 0.00 0.00 0.00 57 1011.4
20260508111256 79 0.0 0.0 0.00 0.00 0.00 56 1009.9
20260508110116 79 0.0 0.0 0.00 0.00 0.00 57 1011.0
20260508104910 79 0.0 0.0 0.00 0.00 0.00 56 1009.5
20260508103725 80 0.0 0.0 0.00 0.00 0.00 55 1010.7
20260508102540 80 0.0 0.0 0.00 0.00 0.00 54 1009.9
20260508101355 80 0.0 0.0 0.00 0.00 0.00 55 1011.0
20260508100210 80 0.0 0.0 0.00 0.00 0.00 55 1009.4
20260508095025 80 0.0 0.0 0.00 0.00 0.00 55 1009.5
20260508093845 80 0.0 0.0 0.00 0.00 0.00 55 1008.8
20260508092638 79 0.0 0.0 0.00 0.00 0.00 55 1010.0
20260508091453 80 0.0 0.0 0.00 0.00 0.00 54 1009.9
20260508090308 80 0.0 0.0 0.00 0.00 0.00 54 1009.8
20260508085123 80 0.0 0.0 0.00 0.00 0.00 52 1010.3
20260508083938 80 0.0 0.0 0.00 0.00 0.00 52 1009.8
20260508082753 81 0.0 0.0 0.00 0.00 0.00 52 1009.5
20260508081608 81 0.0 0.0 0.00 0.00 0.00 48 1009.6
20260508080423 81 0.0 0.0 0.00 0.00 0.00 48 1010.3
20260508075238 81 0.0 0.0 0.00 0.00 0.00 48 1009.0
20260508074053 81 0.0 0.0 0.00 0.00 0.00 48 1009.3
20260508072908 81 0.0 0.0 0.00 0.00 0.00 49 1009.3
20260508071723 81 0.0 0.0 0.00 0.00 0.00 48 1010.0
20260508070538 80 0.0 0.0 0.00 0.00 0.00 48 1010.9
20260508065353 81 0.0 0.0 0.00 0.00 0.00 48 1010.4
20260508064208 81 0.0 0.0 0.00 0.00 0.00 47 1009.6
20260508063023 81 0.0 0.0 0.00 0.00 0.00 46 1010.1
20260508061838 81 0.0 0.0 0.00 0.00 0.00 46 1010.9
20260508060653 81 0.0 0.0 0.00 0.00 0.00 46 1010.3
20260508055508 80 0.0 0.0 0.00 0.00 0.00 47 1011.6
20260508054323 80 0.0 0.0 0.00 0.00 0.00 47 1008.5
20260508053138 80 0.0 0.0 0.00 0.00 0.00 48 1009.5
20260508051953 80 0.0 0.0 0.00 0.00 0.00 49 1011.1
20260508050808 80 0.0 0.0 0.00 0.00 0.00 49 1010.0
20260508045628 80 0.0 0.0 0.00 0.00 0.00 48 1011.4
20260508044422 79 0.0 0.0 0.00 0.00 0.00 49 1011.6
20260508043237 80 0.0 0.0 0.00 0.00 0.00 49 1011.0
20260508042052 79 0.0 0.0 0.00 0.00 0.00 50 1011.6
20260508040907 79 0.0 0.0 0.00 0.00 0.00 50 1012.2
20260508035722 79 0.0 0.0 0.00 0.00 0.00 51 1011.9
20260508034537 79 0.0 0.0 0.00 0.00 0.00 51 1012.2
20260508033352 79 0.0 0.0 0.00 0.00 0.00 51 1012.6
20260508032207 78 0.0 0.0 0.00 0.00 0.00 52 1012.5
20260508031022 78 0.0 0.0 0.00 0.00 0.00 52 1013.7
20260508025837 78 0.0 0.0 0.00 0.00 0.00 52 1013.6
20260508024652 78 0.0 0.0 0.00 0.00 0.00 52 1011.8
20260508023512 79 0.0 0.0 0.00 0.00 0.00 52 1012.3
20260508022307 78 0.0 0.0 0.00 0.00 0.00 53 1013.2
20260508021121 78 0.0 0.0 0.00 0.00 0.00 52 1012.4
20260508015936 77 0.0 0.0 0.00 0.00 0.00 53 1011.9
20260508014751 77 0.0 0.0 0.00 0.00 0.00 53 1012.9
20260508013606 77 0.0 0.0 0.00 0.00 0.00 54 1012.8
20260508012426 77 0.0 0.0 0.00 0.00 0.00 53 1013.0
20260508011219 77 0.0 0.0 0.00 0.00 0.00 52 1012.5
20260508010034 77 0.0 0.0 0.00 0.00 0.00 53 1012.8
20260508004849 77 0.0 0.0 0.00 0.00 0.00 52 1013.7
20260508003704 76 0.0 0.0 0.00 0.00 0.00 53 1011.4
20260508002519 77 0.0 0.0 0.00 0.00 0.00 53 1011.6
20260508001334 77 0.0 0.0 0.00 0.00 0.00 52 1012.2
20260508000149 76 0.0 0.0 0.00 0.00 0.00 53 1011.8
20260507235010 76 0.0 0.0 0.00 0.00 0.00 53 1012.2
20260507233803 77 0.0 0.0 0.00 0.00 0.00 53 1011.1
20260507232618 78 0.0 0.0 0.00 0.00 0.00 52 1013.6
20260507231433 77 0.0 0.0 0.00 0.00 0.00 52 1011.4
20260507230248 77 0.0 0.0 0.00 0.00 0.00 52 1009.1